Skip Page Navigation
NASA JPL Caltech
NASA Logo - Jet Propulsion Laboratory + View the NASA Portal
+ Center for Near-Earth Object Studies
JPL Home Earth Solar System Stars & Galaxies Technology
JPL Solar System Dynamics
BODIES ORBITS EPHEMERIDES TOOLS PHYSICAL DATA DISCOVERY FAQ SITE MAP
IMPORTANT: The SSD Announcement email list is now available. Major changes are coming in the near future, including possible hostname and/or URL changes. To be notified of such changes, subscribe to this email list.

Please visit this page for more details.


JPL Small-Body Database Browser
Search: [ help ]  
215213 (2000 TV18)
Classification: Main-belt Asteroid          SPK-ID: 2215213
Ephemeris | Orbit Diagram | Orbital Elements | Mission Design | Physical Parameters | Discovery Circumstances ]

[ show orbit diagram ]
Orbital Elements at Epoch 2458600.5 (2019-Apr-27.0) TDB
Reference: JPL 19 (heliocentric ecliptic J2000)
 Element Value Uncertainty (1-sigma)   Units 
e .1017821361300219 5.4304e-08  
a 3.010353318437751 2.8171e-08 au
q 2.703953127181057 1.7282e-07 au
i 10.11415588135161 5.364e-06 deg
node 205.7106798705909 2.8585e-05 deg
peri 126.0503357917541 3.8552e-05 deg
M 240.0216000287878 2.7525e-05 deg
tp 2459236.306843516713
(2021-Jan-21.80684352)
0.00015128 TDB
period 1907.763928514941
5.22
2.6779e-05
7.332e-08
d
yr
n .188702592925234 2.6488e-09 deg/d
Q 3.316753509694446 3.1038e-08 au
  Orbit Determination Parameters
   # obs. used (total)      354  
   data-arc span      8607 days (23.56 yr)  
   first obs. used      1995-10-17  
   last obs. used      2019-05-11  
   planetary ephem.      DE431  
   SB-pert. ephem.      SB431-N16  
   condition code      0  
   norm. resid. RMS      .50908  
   source      ORB  
   producer      Otto Matic  
   solution date      2019-May-30 08:21:49  

Additional Information
 Earth MOID = 1.70884 au 
 Jupiter MOID = 2.07967 au 
 T_jup = 3.218 
[ show covariance matrix ]

Ephemeris | Orbit Diagram | Orbital Elements | Mission Design | Physical Parameters | Discovery Circumstances ]

Physical Parameter Table
Parameter Symbol Value Units Sigma Reference Notes
absolute magnitude H 15.4   n/a MPO437029  
diameter diameter 2.628 km 0.710 urn:nasa:pds:neowise_diameters_albedos::2.0[mainbelt] (http://adsabs.harvard.edu/abs/2011ApJ...741...68M)  
geometric albedo albedo 0.177   0.100 urn:nasa:pds:neowise_diameters_albedos::2.0[mainbelt] (http://adsabs.harvard.edu/abs/2011ApJ...741...68M)  

215213 (2000 TV18)          Discovered 2000-Oct-01 by LINEAR at Socorro
Reference: 20090607/Numbers.arcLast Updated: 2009-06-08
Ephemeris | Orbit Diagram | Orbital Elements | Mission Design | Physical Parameters | Discovery Circumstances ]
ABOUT SSD CREDITS/AWARDS PRIVACY/COPYRIGHT GLOSSARY LINKS
FirstGov
(server date/time)  
NASA Home Page
Site Manager:   Ryan S. Park
Webmaster  Alan B. Chamberlin